• In Hungary
  • List of Countries
  • For 7 days
  • Water Temperature
  • Satellite Maps
  • Weather Map
  • News
  • Weather Widgets
  • user-avatar
    Login

    Hourly Weather Hadera

    Today, 24 September, Sunday

    Time Temperature Precipitation Wind Pressure Humidity
    00:00 +21°C° 0 mm 2 mps 718 mmHg 76%
    01:00 +20°C° 0 mm 2 mps 718 mmHg 76%
    02:00 +21°C° 0 mm 3 mps 718 mmHg 73%
    03:00 +20°C° 0 mm 2 mps 718 mmHg 73%
    04:00 +20°C° 0 mm 2 mps 718 mmHg 74%
    05:00 +20°C° 0 mm 2 mps 717 mmHg 75%
    06:00 +22°C° 0 mm 1 mps 718 mmHg 68%
    07:00 +24°C° 0 mm 1 mps 718 mmHg 62%
    08:00 +23°C° 0 mm 0 mps 718 mmHg 55%
    09:00 +26°C° 0 mm 1 mps 718 mmHg 52%
    10:00 +27°C° 0 mm 1 mps 718 mmHg 48%
    11:00 +28°C° 0 mm 2 mps 718 mmHg 45%
    12:00 +28°C° 0 mm 2 mps 718 mmHg 46%
    13:00 +28°C° 0 mm 3 mps 718 mmHg 47%
    14:00 +28°C° 0 mm 4 mps 718 mmHg 48%
    15:00 +27°C° 0 mm 4 mps 718 mmHg 52%
    16:00 +27°C° 0 mm 4 mps 718 mmHg 55%
    17:00 +26°C° 0 mm 4 mps 718 mmHg 59%
    18:00 +25°C° 0 mm 4 mps 718 mmHg 62%
    19:00 +24°C° 0 mm 3 mps 718 mmHg 66%
    20:00 +24°C° 0 mm 3 mps 718 mmHg 70%
    21:00 +22°C° 0 mm 3 mps 718 mmHg 72%
    22:00 +22°C° 0 mm 3 mps 718 mmHg 74%
    23:00 +21°C° 0 mm 2 mps 718 mmHg 76%

    Tomorrow, 25 September, Monday

    Time Temperature Precipitation Wind Pressure Humidity
    00:00 +21°C° 0 mm 2 mps 718 mmHg 77%
    01:00 +21°C° 0 mm 2 mps 717 mmHg 79%
    02:00 +21°C° 0 mm 1 mps 717 mmHg 81%
    03:00 +21°C° 0 mm 1 mps 717 mmHg 81%
    04:00 +21°C° 0 mm 1 mps 717 mmHg 81%
    05:00 +20°C° 0 mm 1 mps 717 mmHg 82%
    06:00 +22°C° 0 mm 1 mps 717 mmHg 74%
    07:00 +23°C° 0 mm 1 mps 717 mmHg 67%
    08:00 +25°C° 0 mm 1 mps 718 mmHg 59%
    09:00 +26°C° 0 mm 1 mps 718 mmHg 55%
    10:00 +27°C° 0 mm 2 mps 718 mmHg 50%
    11:00 +28°C° 0 mm 2 mps 718 mmHg 46%
    12:00 +28°C° 0 mm 2 mps 718 mmHg 48%
    13:00 +28°C° 0 mm 3 mps 718 mmHg 50%
    14:00 +27°C° 0 mm 3 mps 718 mmHg 53%
    15:00 +27°C° 0 mm 3 mps 717 mmHg 55%
    16:00 +26°C° 0 mm 3 mps 717 mmHg 58%
    17:00 +25°C° 0 mm 3 mps 717 mmHg 61%
    18:00 +25°C° 0 mm 3 mps 717 mmHg 63%
    19:00 +24°C° 0 mm 3 mps 717 mmHg 65%
    20:00 +24°C° 0 mm 3 mps 717 mmHg 66%
    21:00 +24°C° 0 mm 3 mps 717 mmHg 67%
    22:00 +22°C° 0 mm 3 mps 717 mmHg 68%
    23:00 +22°C° 0 mm 3 mps 717 mmHg 69%

    Day after tomorrow, 26 September, Tuesday

    Time Temperature Precipitation Wind Pressure Humidity
    00:00 +22°C° 0 mm 3 mps 717 mmHg 72%
    01:00 +21°C° 0 mm 3 mps 717 mmHg 74%
    02:00 +21°C° 0 mm 3 mps 717 mmHg 76%
    03:00 +21°C° 0 mm 3 mps 716 mmHg 77%
    04:00 +20°C° 0 mm 3 mps 716 mmHg 79%
    05:00 +20°C° 0 mm 3 mps 716 mmHg 80%
    06:00 +21°C° 0 mm 3 mps 717 mmHg 75%
    07:00 +22°C° 0 mm 3 mps 717 mmHg 69%
    08:00 +24°C° 0 mm 3 mps 717 mmHg 64%
    09:00 +25°C° 0 mm 4 mps 717 mmHg 60%
    10:00 +26°C° 0 mm 4 mps 718 mmHg 57%
    11:00 +27°C° 0 mm 4 mps 718 mmHg 53%
    12:00 +27°C° 0 mm 5 mps 718 mmHg 53%
    13:00 +27°C° 0 mm 5 mps 718 mmHg 53%
    14:00 +27°C° 0 mm 6 mps 717 mmHg 53%
    15:00 +26°C° 0 mm 6 mps 717 mmHg 56%
    16:00 +24°C° 0 mm 6 mps 717 mmHg 58%
    17:00 +24°C° 0 mm 6 mps 717 mmHg 61%
    18:00 +23°C° 0 mm 5 mps 717 mmHg 65%
    19:00 +22°C° 0 mm 5 mps 718 mmHg 69%
    20:00 +22°C° 0 mm 5 mps 718 mmHg 73%
    21:00 +21°C° 0 mm 5 mps 718 mmHg 75%
    22:00 +21°C° 0 mm 5 mps 718 mmHg 77%
    23:00 +21°C° 0 mm 5 mps 718 mmHg 79%

    27 September, Wednesday

    Time Temperature Precipitation Wind Pressure Humidity
    00:00 +21°C° 0 mm 5 mps 718 mmHg 81%
    01:00 +21°C° 0 mm 5 mps 718 mmHg 82%
    02:00 +20°C° 0 mm 5 mps 718 mmHg 84%
    03:00 +20°C° 0 mm 5 mps 718 mmHg 84%
    04:00 +20°C° 0 mm 5 mps 718 mmHg 85%
    05:00 +20°C° 0 mm 5 mps 718 mmHg 86%
    06:00 +21°C° 0 mm 4 mps 718 mmHg 82%
    07:00 +22°C° 0 mm 4 mps 718 mmHg 77%
    08:00 +23°C° 0 mm 4 mps 719 mmHg 72%
    09:00 +25°C° 0 mm 4 mps 719 mmHg 67%
    10:00 +26°C° 0 mm 5 mps 719 mmHg 62%
    11:00 +27°C° 0 mm 5 mps 719 mmHg 58%
    12:00 +27°C° 0 mm 5 mps 719 mmHg 58%
    13:00 +27°C° 0 mm 6 mps 718 mmHg 59%
    14:00 +27°C° 0 mm 6 mps 718 mmHg 60%
    15:00 +26°C° 0 mm 6 mps 718 mmHg 64%
    16:00 +24°C° 0 mm 6 mps 718 mmHg 67%
    17:00 +25°C° 0 mm 5 mps 718 mmHg 71%
    18:00 +23°C° 0 mm 5 mps 718 mmHg 74%
    19:00 +22°C° 0 mm 5 mps 718 mmHg 78%
    20:00 +22°C° 0 mm 4 mps 718 mmHg 81%
    21:00 +21°C° 0 mm 4 mps 718 mmHg 82%
    22:00 +21°C° 0 mm 4 mps 718 mmHg 83%
    23:00 +21°C° 0 mm 4 mps 718 mmHg 84%

    28 September, Thursday

    Time Temperature Precipitation Wind Pressure Humidity
    00:00 +20°C° 0 mm 4 mps 718 mmHg 85%
    01:00 +20°C° 0 mm 4 mps 718 mmHg 86%
    02:00 +20°C° 0 mm 4 mps 717 mmHg 86%
    03:00 +20°C° 0 mm 4 mps 717 mmHg 87%
    04:00 +19°C° 0 mm 3 mps 717 mmHg 88%
    05:00 +19°C° 0 mm 3 mps 717 mmHg 89%
    06:00 +20°C° 0 mm 3 mps 717 mmHg 82%
    07:00 +21°C° 0 mm 3 mps 718 mmHg 76%
    08:00 +24°C° 0 mm 3 mps 718 mmHg 70%
    09:00 +25°C° 0 mm 3 mps 718 mmHg 65%
    10:00 +26°C° 0 mm 3 mps 718 mmHg 59%
    11:00 +27°C° 0 mm 3 mps 718 mmHg 54%
    12:00 +27°C° 0 mm 4 mps 718 mmHg 55%
    13:00 +27°C° 0 mm 4 mps 718 mmHg 56%
    14:00 +26°C° 0 mm 4 mps 717 mmHg 57%
    15:00 +26°C° 0 mm 4 mps 717 mmHg 61%
    16:00 +25°C° 0 mm 5 mps 717 mmHg 65%
    17:00 +23°C° 0 mm 5 mps 717 mmHg 70%
    18:00 +23°C° 0 mm 4 mps 717 mmHg 73%
    19:00 +22°C° 0 mm 4 mps 717 mmHg 76%
    20:00 +22°C° 0 mm 4 mps 717 mmHg 78%
    21:00 +22°C° 0 mm 4 mps 717 mmHg 80%
    22:00 +21°C° 0 mm 4 mps 717 mmHg 82%
    23:00 +21°C° 0 mm 4 mps 717 mmHg 83%

    29 September, Friday

    Time Temperature Precipitation Wind Pressure Humidity
    00:00 +21°C° 0.1 mm 4 mps 717 mmHg 84%
    01:00 +21°C° 0.1 mm 4 mps 717 mmHg 85%
    02:00 +21°C° 0.1 mm 4 mps 716 mmHg 85%
    03:00 +21°C° 0.1 mm 4 mps 716 mmHg 84%
    04:00 +21°C° 0.1 mm 4 mps 716 mmHg 83%
    05:00 +21°C° 0.1 mm 3 mps 716 mmHg 81%
    06:00 +21°C° 0.1 mm 3 mps 716 mmHg 78%
    07:00 +22°C° 0.1 mm 4 mps 717 mmHg 74%
    08:00 +22°C° 0.1 mm 4 mps 717 mmHg 70%
    09:00 +23°C° 0 mm 4 mps 717 mmHg 65%
    10:00 +25°C° 0 mm 4 mps 717 mmHg 60%
    11:00 +26°C° 0 mm 4 mps 717 mmHg 56%
    12:00 +25°C° 0.2 mm 5 mps 716 mmHg 57%
    13:00 +25°C° 0.2 mm 5 mps 716 mmHg 58%
    14:00 +25°C° 0.2 mm 5 mps 716 mmHg 60%
    15:00 +25°C° 0.5 mm 5 mps 716 mmHg 63%
    16:00 +23°C° 0.5 mm 5 mps 716 mmHg 66%
    17:00 +22°C° 0.5 mm 5 mps 716 mmHg 70%
    18:00 +22°C° 0.4 mm 5 mps 716 mmHg 72%
    19:00 +22°C° 0.4 mm 4 mps 716 mmHg 75%
    20:00 +21°C° 0.4 mm 4 mps 716 mmHg 78%
    21:00 +21°C° 0.2 mm 4 mps 716 mmHg 78%
    22:00 +21°C° 0.2 mm 4 mps 716 mmHg 79%
    23:00 +21°C° 0.2 mm 4 mps 716 mmHg 80%
    Show more